sat.trackr.live / text

‹ back to catalog

STARLINK-34147

NORAD 63965 · 2025-099P

PAYLOAD ACTIVE UNKNOWN

§ Identity

Operator
Country
US
Launch date
2025-05-13
Launch site
AFETR
Launch vehicle
Mass (kg)
RCS (m²)

Purposes: comms

External: N2YO · Heavens-Above · Gunter

§ Orbital elements

Epoch: 2026-05-25T03:50:47.476608Z

Period
94.27 min
Inclination
43.0008°
Eccentricity
0.0001275
Mean motion
15.27589984 rev/d
Perigee alt
482.1 km
Apogee alt
483.9 km
Semi-major
6,861.2 km
B*
6.7523e-4
RAAN
104.1636°
Arg perigee
258.8095°
Mean anomaly
101.2613°
Rev number
5,903

§ Raw data

STARLINK-341471 63965U 25099P   26145.16027172  .00018371  00000+0  67523-3 0  99932 63965  43.0008 104.1636 0001275 258.8095 101.2613 15.27589984 59038

JSON: /api/v1/satellites/63965 · /tle

For live sub-satellite position, see the globe view (requires WebGL).

§ Visibility from observer

Set your observer location to see the next 7 days of passes ≥ 10°. The values pass through the URL so the page stays shareable.

No JS? Fill the form by hand. The geolocation button needs JavaScript.